QPF
0.00 0.00 0.00 0.00 0.00 0.00 0.00 0.00 0.00 0.00 0.00 0.00 0.00 0.00 0.00 0.00 0.00 0.00 0.00 0.00 0.00 0.00 0.00 0.00 0.00 0.00 0.00 0.00 0.00 0.00 0.00 0.00 0.00 0.00 0.00 0.00 0.00 0.00 0.00 0.00 0.00 0.00 0.00 0.00
0.00 0.00 0.00 0.00 0.00 0.00 0.00 0.00 0.00 0.00 0.00 0.00 0.00 0.00 0.00 0.00 0.00 0.00 0.00 0.00 0.00 0.00 0.00 0.00 0.00 0.00 0.00 0.00 0.00 0.00 0.00 0.00 0.00 0.00 0.00 0.00 0.00 0.00 0.00 0.00 0.00 0.00 0.00 0.00
0.00 0.00 0.00 0.00 0.00 0.00 0.00 0.00 0.00 0.00 0.00 0.00 0.00 0.00 0.00 0.00 0.00 0.00 0.00 0.00 0.00 0.00 0.00 0.00 0.00 0.00 0.00 0.00 0.00 0.00 0.00 0.00 0.00 0.00 0.00 0.00 0.00 0.00 0.00 0.00 0.00 0.00 0.00 0.00
0.00 0.00 0.00 0.00 0.00 0.00 0.00 0.00 0.00 0.00 0.00 0.00 0.00 0.00 0.00 0.00 0.00 0.00 0.00 0.00 0.00 0.00 0.00 0.00 0.00 0.00 0.00 0.00 0.00 0.00 0.00 0.00 0.00 0.00 0.00 0.00 0.00 0.00 0.00 0.00 0.00 0.00 0.00 0.00
0.00 0.00 0.00 0.00 0.00 0.00 0.00 0.00 0.00 0.00 0.00 0.00 0.00 0.00 0.00 0.00 0.00 0.00 0.00 0.00 0.00 0.00 0.00 0.00 0.00 0.00 0.00 0.00 0.00 0.00 0.00 0.00 0.00 0.00 0.00 0.00 0.00 0.00 0.00 0.00 0.00 0.00 0.00 0.00
0.00 0.00 0.00 0.00 0.00 0.00 0.00 0.00 0.00 0.00 0.00 0.00 0.00 0.00 0.00 0.00 0.00 0.00 0.00 0.00 0.00 0.00 0.00 0.00 0.00 0.00 0.00 0.00 0.00 0.00 0.00 0.00 0.00 0.00 0.00 0.00 0.00 0.00 0.00 0.00 0.00 0.00 0.00 0.00
0.00 0.00 0.00 0.00 0.00 0.00 0.00 0.00 0.00 0.00 0.00 0.00 0.00 0.00 0.00 0.00 0.00 0.00 0.00 0.00 0.00 0.00 0.00 0.00 0.00 0.00 0.00 0.00 0.00 0.00 0.00 0.00 0.00 0.00 0.00 0.00 0.00 0.00 0.00 0.00 0.00 0.00 0.00 0.00
0.00 0.00 0.00 0.00 0.00 0.00 0.00 0.00 0.00 0.00 0.00 0.00 0.00 0.00 0.00 0.00 0.00 0.00 0.00 0.00 0.00 0.00 0.00 0.00 0.00 0.00 0.00 0.00 0.00 0.00 0.00 0.00 0.00 0.00 0.00 0.00 0.00 0.00 0.00 0.00 0.00 0.00 0.00 0.00
0.00 0.00 0.00 0.00 0.00 0.00 0.00 0.00 0.00 0.00 0.00 0.00 0.00 0.00 0.00 0.00 0.00 0.00 0.00 0.00 0.00 0.00 0.00 0.00 0.00 0.00 0.00 0.00 0.00 0.00 0.00 0.00 0.00 0.00 0.00 0.00 0.00 0.00 0.00 0.00 0.01 0.00 0.00 0.00
0.00 0.00 0.00 0.00 0.00 0.00 0.00 0.00 0.00 0.00 0.00 0.00 0.00 0.00 0.00 0.00 0.00 0.00 0.00 0.00 0.00 0.00 0.00 0.00 0.00 0.00 0.00 0.00 0.00 0.00 0.00 0.00 0.00 0.00 0.00 0.00 0.00 0.00 0.00 0.01 0.03 0.02 0.01 0.00
0.00 0.00 0.00 0.00 0.00 0.00 0.00 0.00 0.00 0.00 0.00 0.00 0.00 0.00 0.00 0.00 0.00 0.00 0.00 0.00 0.00 0.00 0.00 0.00 0.00 0.00 0.00 0.00 0.00 0.00 0.00 0.00 0.00 0.00 0.00 0.00 0.00 0.00 0.00 0.00 0.02 0.02 0.02 0.01
0.00 0.00 0.00 0.00 0.00 0.00 0.00 0.00 0.00 0.00 0.00 0.00 0.00 0.00 0.00 0.00 0.00 0.00 0.00 0.00 0.00 0.00 0.00 0.00 0.00 0.00 0.00 0.00 0.00 0.00 0.00 0.00 0.00 0.00 0.00 0.00 0.00 0.00 0.00 0.00 0.01 0.01 0.01 0.02
0.00 0.00 0.00 0.00 0.00 0.00 0.00 0.00 0.00 0.00 0.00 0.00 0.00 0.00 0.00 0.00 0.00 0.00 0.00 0.00 0.00 0.00 0.00 0.00 0.00 0.00 0.00 0.00 0.00 0.00 0.00 0.00 0.00 0.00 0.00 0.00 0.00 0.00 0.00 0.00 0.00 0.00 0.00 0.01
0.00 0.00 0.00 0.00 0.00 0.00 0.00 0.00 0.00 0.00 0.00 0.00 0.00 0.00 0.00 0.00 0.00 0.00 0.00 0.00 0.00 0.00 0.00 0.00 0.00 0.00 0.00 0.00 0.00 0.00 0.00 0.00 0.00 0.00 0.00 0.00 0.00 0.00 0.00 0.00 0.00 0.00 0.00 0.00
0.00 0.00 0.00 0.00 0.00 0.00 0.00 0.00 0.00 0.00 0.00 0.00 0.00 0.00 0.00 0.00 0.00 0.00 0.00 0.00 0.00 0.00 0.00 0.00 0.00 0.00 0.00 0.00 0.00 0.00 0.00 0.00 0.00 0.00 0.00 0.00 0.00 0.00 0.00 0.00 0.00 0.00 0.00 0.00
0.00 0.00 0.00 0.00 0.00 0.00 0.00 0.00 0.00 0.00 0.00 0.00 0.00 0.00 0.00 0.00 0.00 0.00 0.00 0.00 0.00 0.00 0.00 0.00 0.00 0.00 0.00 0.00 0.00 0.00 0.00 0.00 0.00 0.00 0.00 0.00 0.00 0.00 0.00 0.00 0.00 0.00 0.00 0.01
0.00 0.00 0.00 0.00 0.00 0.00 0.00 0.00 0.00 0.00 0.00 0.00 0.00 0.00 0.00 0.00 0.00 0.00 0.00 0.00 0.00 0.00 0.00 0.00 0.00 0.00 0.00 0.00 0.00 0.00 0.00 0.00 0.00 0.00 0.00 0.00 0.00 0.00 0.00 0.00 0.01 0.01 0.00 0.01
0.00 0.00 0.00 0.00 0.00 0.00 0.00 0.00 0.00 0.00 0.00 0.00 0.00 0.00 0.00 0.00 0.00 0.00 0.00 0.00 0.00 0.00 0.00 0.00 0.00 0.00 0.00 0.00 0.00 0.00 0.00 0.00 0.00 0.00 0.00 0.00 0.00 0.00 0.00 0.00 0.01 0.01 0.01 0.00
0.00 0.00 0.00 0.00 0.00 0.00 0.00 0.00 0.00 0.00 0.00 0.00 0.00 0.00 0.00 0.00 0.00 0.00 0.00 0.00 0.00 0.00 0.00 0.00 0.00 0.00 0.00 0.00 0.00 0.00 0.00 0.00 0.00 0.00 0.00 0.00 0.00 0.00 0.00 0.00 0.01 0.01 0.01 0.01
0.00 0.00 0.00 0.00 0.00 0.00 0.00 0.00 0.00 0.00 0.00 0.00 0.00 0.00 0.00 0.00 0.00 0.00 0.00 0.00 0.00 0.00 0.00 0.00 0.00 0.00 0.00 0.00 0.00 0.00 0.00 0.00 0.00 0.00 0.00 0.00 0.00 0.00 0.00 0.00 0.01 0.01 0.01 0.01
0.00 0.00 0.00 0.00 0.00 0.00 0.00 0.00 0.00 0.00 0.00 0.00 0.00 0.00 0.00 0.00 0.00 0.00 0.00 0.00 0.00 0.00 0.00 0.00 0.00 0.00 0.00 0.00 0.00 0.00 0.00 0.00 0.00 0.00 0.00 0.00 0.00 0.00 0.00 0.00 0.01 0.01 0.01 0.01
0.00 0.00 0.00 0.00 0.00 0.00 0.00 0.00 0.00 0.00 0.00 0.00 0.00 0.00 0.00 0.00 0.00 0.00 0.00 0.00 0.00 0.00 0.00 0.00 0.00 0.00 0.00 0.00 0.00 0.00 0.00 0.00 0.00 0.00 0.00 0.00 0.00 0.00 0.00 0.00 0.01 0.01 0.01 0.01
0.00 0.00 0.00 0.00 0.00 0.00 0.00 0.00 0.00 0.00 0.00 0.00 0.00 0.00 0.00 0.00 0.00 0.00 0.00 0.00 0.00 0.00 0.00 0.00 0.00 0.00 0.00 0.00 0.00 0.00 0.00 0.00 0.00 0.00 0.00 0.00 0.00 0.00 0.00 0.00 0.00 0.01 0.01 0.01
0.00 0.00 0.00 0.00 0.00 0.00 0.00 0.00 0.00 0.00 0.00 0.00 0.00 0.00 0.00 0.00 0.00 0.00 0.00 0.00 0.00 0.00 0.00 0.00 0.00 0.00 0.00 0.00 0.00 0.00 0.00 0.00 0.00 0.00 0.00 0.00 0.00 0.00 0.00 0.00 0.00 0.00 0.01 0.01
0.00 0.00 0.00 0.00 0.00 0.00 0.00 0.00 0.00 0.00 0.00 0.00 0.00 0.00 0.00 0.00 0.00 0.00 0.00 0.00 0.00 0.00 0.00 0.00 0.00 0.00 0.00 0.00 0.00 0.00 0.00 0.00 0.00 0.00 0.00 0.00 0.00 0.00 0.00 0.00 0.00 0.01 0.01 0.01
0.00 0.00 0.00 0.00 0.00 0.00 0.00 0.00 0.00 0.00 0.00 0.00 0.00 0.00 0.00 0.00 0.00 0.00 0.00 0.00 0.00 0.00 0.00 0.00 0.00 0.00 0.00 0.00 0.00 0.00 0.00 0.00 0.00 0.00 0.00 0.00 0.00 0.00 0.00 0.00 0.00 0.01 0.01 0.01
0.00 0.00 0.00 0.00 0.00 0.00 0.00 0.00 0.00 0.00 0.00 0.00 0.00 0.00 0.00 0.00 0.00 0.00 0.00 0.00 0.00 0.00 0.00 0.00 0.00 0.00 0.00 0.00 0.00 0.00 0.00 0.00 0.00 0.00 0.00 0.00 0.00 0.00 0.00 0.00 0.00 0.01 0.01 0.01
MSLP
1029.26 1028.97 1028.68 1028.45 1028.32 1028.32 1028.48 1028.80 1029.30 1029.95 1030.73 1031.62 1032.58 1033.57 1034.54 1035.46 1036.28 1036.99 1037.57 1038.01 1038.30 1038.46 1038.51 1038.44 1038.29 1038.05 1037.73 1037.31 1036.82 1036.24 1035.59 1034.88 1034.13 1033.37 1032.62 1031.88 1031.15 1030.43 1029.68 1028.87 1027.98 1026.99 1025.88 1024.68
1029.64 1029.24 1028.82 1028.43 1028.14 1028.00 1028.06 1028.33 1028.83 1029.53 1030.40 1031.41 1032.49 1033.58 1034.63 1035.59 1036.43 1037.11 1037.65 1038.03 1038.27 1038.40 1038.42 1038.36 1038.23 1038.02 1037.73 1037.34 1036.86 1036.29 1035.64 1034.92 1034.17 1033.41 1032.66 1031.92 1031.21 1030.49 1029.74 1028.93 1028.02 1026.99 1025.85 1024.60
1030.03 1029.52 1028.95 1028.40 1027.96 1027.69 1027.66 1027.89 1028.39 1029.13 1030.09 1031.20 1032.39 1033.58 1034.70 1035.70 1036.54 1037.20 1037.70 1038.03 1038.23 1038.32 1038.34 1038.29 1038.17 1037.99 1037.73 1037.38 1036.93 1036.37 1035.73 1035.03 1034.28 1033.52 1032.78 1032.07 1031.37 1030.68 1029.94 1029.14 1028.23 1027.20 1026.04 1024.78
1030.34 1029.71 1029.01 1028.33 1027.76 1027.40 1027.29 1027.48 1027.99 1028.79 1029.82 1031.02 1032.30 1033.57 1034.75 1035.78 1036.63 1037.28 1037.74 1038.04 1038.20 1038.28 1038.28 1038.23 1038.14 1037.98 1037.75 1037.43 1037.00 1036.46 1035.84 1035.14 1034.41 1033.67 1032.96 1032.27 1031.60 1030.94 1030.24 1029.47 1028.59 1027.58 1026.44 1025.20
1030.44 1029.73 1028.94 1028.17 1027.52 1027.09 1026.94 1027.13 1027.66 1028.51 1029.61 1030.88 1032.24 1033.57 1034.80 1035.85 1036.71 1037.35 1037.79 1038.06 1038.20 1038.26 1038.25 1038.21 1038.12 1037.98 1037.77 1037.46 1037.04 1036.52 1035.91 1035.23 1034.51 1033.80 1033.11 1032.46 1031.84 1031.22 1030.57 1029.85 1029.02 1028.06 1026.97 1025.78
1030.27 1029.51 1028.68 1027.87 1027.19 1026.76 1026.62 1026.84 1027.41 1028.31 1029.47 1030.80 1032.20 1033.58 1034.83 1035.91 1036.76 1037.40 1037.82 1038.08 1038.21 1038.25 1038.24 1038.19 1038.11 1037.97 1037.75 1037.44 1037.03 1036.51 1035.90 1035.23 1034.54 1033.85 1033.19 1032.58 1032.01 1031.44 1030.85 1030.19 1029.43 1028.55 1027.53 1026.42
1029.76 1029.00 1028.19 1027.42 1026.79 1026.41 1026.33 1026.61 1027.24 1028.20 1029.41 1030.78 1032.21 1033.60 1034.87 1035.94 1036.79 1037.42 1037.83 1038.08 1038.20 1038.24 1038.22 1038.16 1038.06 1037.91 1037.68 1037.36 1036.93 1036.41 1035.80 1035.14 1034.46 1033.80 1033.18 1032.60 1032.07 1031.56 1031.03 1030.44 1029.75 1028.95 1028.03 1027.01
1028.94 1028.24 1027.51 1026.84 1026.33 1026.06 1026.10 1026.48 1027.19 1028.20 1029.45 1030.84 1032.27 1033.65 1034.90 1035.95 1036.78 1037.39 1037.80 1038.04 1038.15 1038.18 1038.15 1038.08 1037.96 1037.79 1037.54 1037.19 1036.75 1036.22 1035.61 1034.96 1034.30 1033.66 1033.06 1032.52 1032.03 1031.56 1031.07 1030.54 1029.92 1029.20 1028.37 1027.46
1027.88 1027.28 1026.70 1026.19 1025.86 1025.76 1025.95 1026.45 1027.26 1028.33 1029.59 1030.97 1032.38 1033.72 1034.92 1035.93 1036.73 1037.31 1037.70 1037.93 1038.04 1038.06 1038.02 1037.93 1037.79 1037.59 1037.31 1036.95 1036.49 1035.95 1035.35 1034.71 1034.07 1033.46 1032.88 1032.37 1031.90 1031.45 1031.00 1030.50 1029.93 1029.27 1028.52 1027.71
1026.67 1026.23 1025.83 1025.54 1025.43 1025.54 1025.91 1026.55 1027.45 1028.57 1029.83 1031.18 1032.53 1033.80 1034.93 1035.88 1036.62 1037.17 1037.53 1037.75 1037.84 1037.85 1037.80 1037.70 1037.54 1037.32 1037.03 1036.65 1036.19 1035.66 1035.07 1034.46 1033.84 1033.25 1032.70 1032.20 1031.74 1031.29 1030.84 1030.35 1029.80 1029.18 1028.49 1027.75
1025.44 1025.17 1024.99 1024.95 1025.08 1025.43 1025.99 1026.77 1027.76 1028.91 1030.16 1031.45 1032.71 1033.88 1034.92 1035.78 1036.46 1036.96 1037.29 1037.49 1037.58 1037.58 1037.52 1037.40 1037.23 1037.00 1036.70 1036.32 1035.88 1035.36 1034.81 1034.23 1033.64 1033.08 1032.55 1032.05 1031.59 1031.12 1030.65 1030.14 1029.58 1028.96 1028.30 1027.60
1024.27 1024.19 1024.25 1024.46 1024.85 1025.42 1026.17 1027.09 1028.15 1029.30 1030.52 1031.73 1032.89 1033.96 1034.88 1035.65 1036.26 1036.70 1037.00 1037.18 1037.26 1037.25 1037.19 1037.07 1036.89 1036.66 1036.36 1036.00 1035.58 1035.10 1034.59 1034.05 1033.52 1032.99 1032.47 1031.98 1031.49 1030.99 1030.48 1029.92 1029.32 1028.68 1028.01 1027.34
1023.21 1023.33 1023.62 1024.08 1024.70 1025.49 1026.41 1027.44 1028.55 1029.70 1030.86 1031.99 1033.04 1033.99 1034.81 1035.48 1036.02 1036.41 1036.68 1036.84 1036.91 1036.90 1036.83 1036.71 1036.54 1036.31 1036.03 1035.69 1035.30 1034.88 1034.41 1033.94 1033.45 1032.95 1032.46 1031.97 1031.46 1030.92 1030.35 1029.75 1029.09 1028.41 1027.71 1027.02
1022.27 1022.58 1023.08 1023.77 1024.61 1025.58 1026.64 1027.75 1028.89 1030.03 1031.13 1032.17 1033.11 1033.95 1034.67 1035.27 1035.74 1036.09 1036.34 1036.48 1036.55 1036.55 1036.48 1036.36 1036.19 1035.97 1035.71 1035.40 1035.05 1034.67 1034.27 1033.85 1033.41 1032.96 1032.49 1032.00 1031.48 1030.91 1030.29 1029.62 1028.91 1028.18 1027.44 1026.73
1021.43 1021.90 1022.61 1023.49 1024.51 1025.63 1026.79 1027.97 1029.12 1030.23 1031.26 1032.22 1033.07 1033.82 1034.46 1034.99 1035.42 1035.75 1035.99 1036.13 1036.20 1036.21 1036.15 1036.03 1035.86 1035.65 1035.40 1035.12 1034.81 1034.48 1034.13 1033.76 1033.37 1032.97 1032.53 1032.05 1031.52 1030.93 1030.27 1029.56 1028.81 1028.03 1027.25 1026.50
1020.63 1021.28 1022.15 1023.20 1024.36 1025.58 1026.82 1028.02 1029.17 1030.24 1031.21 1032.10 1032.88 1033.56 1034.15 1034.65 1035.06 1035.38 1035.62 1035.78 1035.87 1035.88 1035.82 1035.71 1035.55 1035.34 1035.10 1034.84 1034.56 1034.26 1033.96 1033.64 1033.30 1032.94 1032.53 1032.07 1031.55 1030.96 1030.29 1029.56 1028.79 1027.98 1027.17 1026.39
1019.86 1020.66 1021.68 1022.86 1024.12 1025.41 1026.68 1027.89 1029.01 1030.04 1030.96 1031.79 1032.52 1033.16 1033.73 1034.22 1034.63 1034.97 1035.23 1035.41 1035.51 1035.54 1035.50 1035.39 1035.23 1035.03 1034.80 1034.55 1034.29 1034.03 1033.76 1033.48 1033.19 1032.86 1032.49 1032.07 1031.57 1030.99 1030.34 1029.62 1028.84 1028.03 1027.21 1026.41
1019.12 1020.07 1021.20 1022.47 1023.79 1025.11 1026.38 1027.56 1028.65 1029.63 1030.51 1031.30 1032.00 1032.62 1033.19 1033.69 1034.12 1034.49 1034.78 1035.00 1035.13 1035.18 1035.15 1035.06 1034.91 1034.71 1034.49 1034.26 1034.02 1033.78 1033.54 1033.30 1033.04 1032.76 1032.43 1032.04 1031.58 1031.04 1030.42 1029.73 1028.98 1028.18 1027.37 1026.56
1018.44 1019.50 1020.73 1022.05 1023.39 1024.70 1025.94 1027.08 1028.12 1029.05 1029.89 1030.64 1031.32 1031.95 1032.53 1033.05 1033.52 1033.93 1034.26 1034.51 1034.68 1034.76 1034.75 1034.68 1034.55 1034.37 1034.17 1033.96 1033.74 1033.53 1033.32 1033.11 1032.89 1032.64 1032.35 1032.01 1031.59 1031.11 1030.54 1029.89 1029.18 1028.42 1027.62 1026.82
1017.84 1019.01 1020.30 1021.64 1022.97 1024.24 1025.42 1026.50 1027.47 1028.35 1029.14 1029.87 1030.55 1031.18 1031.77 1032.33 1032.83 1033.27 1033.65 1033.94 1034.14 1034.25 1034.29 1034.24 1034.15 1034.00 1033.84 1033.66 1033.48 1033.30 1033.13 1032.96 1032.78 1032.57 1032.32 1032.02 1031.65 1031.21 1030.69 1030.10 1029.44 1028.72 1027.95 1027.14
1017.38 1018.63 1019.94 1021.27 1022.55 1023.75 1024.86 1025.86 1026.77 1027.59 1028.34 1029.05 1029.71 1030.35 1030.96 1031.53 1032.07 1032.54 1032.95 1033.28 1033.52 1033.67 1033.74 1033.75 1033.69 1033.60 1033.49 1033.36 1033.23 1033.11 1032.99 1032.86 1032.71 1032.55 1032.34 1032.07 1031.75 1031.35 1030.88 1030.34 1029.72 1029.04 1028.29 1027.48
1017.06 1018.35 1019.66 1020.94 1022.16 1023.28 1024.30 1025.22 1026.06 1026.82 1027.54 1028.21 1028.87 1029.51 1030.12 1030.71 1031.26 1031.76 1032.19 1032.54 1032.81 1033.00 1033.12 1033.19 1033.19 1033.17 1033.13 1033.07 1033.01 1032.95 1032.88 1032.80 1032.71 1032.57 1032.40 1032.17 1031.88 1031.52 1031.08 1030.57 1029.99 1029.33 1028.60 1027.79
1016.87 1018.16 1019.44 1020.65 1021.78 1022.81 1023.74 1024.59 1025.36 1026.07 1026.75 1027.41 1028.05 1028.68 1029.30 1029.89 1030.44 1030.94 1031.38 1031.75 1032.05 1032.28 1032.45 1032.57 1032.65 1032.70 1032.74 1032.77 1032.79 1032.80 1032.80 1032.77 1032.72 1032.62 1032.47 1032.27 1032.00 1031.66 1031.25 1030.76 1030.19 1029.55 1028.83 1028.02
1016.74 1018.00 1019.21 1020.34 1021.38 1022.32 1023.17 1023.95 1024.67 1025.35 1026.00 1026.64 1027.28 1027.90 1028.51 1029.09 1029.64 1030.13 1030.57 1030.94 1031.26 1031.52 1031.73 1031.91 1032.06 1032.20 1032.32 1032.44 1032.54 1032.63 1032.69 1032.72 1032.71 1032.64 1032.52 1032.32 1032.06 1031.73 1031.33 1030.85 1030.30 1029.66 1028.94 1028.14
1016.59 1017.78 1018.91 1019.95 1020.89 1021.75 1022.54 1023.27 1023.96 1024.62 1025.27 1025.90 1026.54 1027.16 1027.76 1028.32 1028.85 1029.33 1029.76 1030.13 1030.46 1030.74 1030.99 1031.23 1031.44 1031.65 1031.86 1032.05 1032.24 1032.40 1032.52 1032.60 1032.62 1032.58 1032.47 1032.28 1032.02 1031.69 1031.29 1030.82 1030.27 1029.64 1028.92 1028.12
1016.32 1017.42 1018.45 1019.39 1020.26 1021.05 1021.79 1022.50 1023.18 1023.84 1024.50 1025.15 1025.79 1026.42 1027.01 1027.57 1028.08 1028.55 1028.96 1029.33 1029.66 1029.96 1030.24 1030.52 1030.79 1031.06 1031.34 1031.60 1031.85 1032.07 1032.24 1032.36 1032.41 1032.39 1032.28 1032.10 1031.84 1031.51 1031.10 1030.63 1030.09 1029.47 1028.77 1027.98
1015.87 1016.85 1017.77 1018.63 1019.42 1020.17 1020.90 1021.60 1022.29 1022.98 1023.67 1024.35 1025.01 1025.64 1026.24 1026.80 1027.30 1027.75 1028.16 1028.52 1028.85 1029.17 1029.47 1029.78 1030.10 1030.43 1030.75 1031.07 1031.37 1031.63 1031.84 1031.99 1032.06 1032.04 1031.94 1031.76 1031.50 1031.17 1030.77 1030.30 1029.77 1029.18 1028.50 1027.75
Thickness
5616 5613 5606 5600 5595 5585 5571 5560 5549 5553 5545 5532 5505 5481 5459 5439 5421 5404 5387 5371 5356 5339 5323 5308 5295 5283 5272 5262 5252 5242 5232 5223 5214 5204 5194 5184 5173 5161 5148 5133 5118 5106 5098 5094
5614 5613 5602 5598 5593 5582 5571 5562 5554 5549 5540 5526 5496 5472 5450 5432 5417 5400 5384 5368 5353 5337 5320 5305 5291 5280 5270 5259 5249 5239 5229 5220 5212 5202 5192 5181 5170 5157 5143 5128 5114 5102 5095 5093
5606 5597 5603 5602 5602 5582 5576 5566 5560 5550 5540 5506 5487 5470 5447 5428 5414 5398 5382 5366 5349 5332 5316 5301 5289 5278 5266 5256 5246 5237 5227 5219 5210 5200 5190 5179 5167 5154 5141 5126 5113 5102 5095 5094
5586 5595 5605 5617 5602 5591 5581 5575 5561 5553 5531 5510 5489 5463 5443 5426 5409 5393 5379 5362 5344 5327 5312 5298 5286 5275 5264 5254 5245 5236 5227 5219 5209 5200 5189 5178 5166 5153 5140 5126 5114 5103 5097 5095
5578 5587 5594 5607 5600 5590 5577 5573 5564 5543 5519 5492 5468 5450 5434 5423 5407 5390 5376 5359 5341 5325 5310 5296 5284 5273 5263 5254 5244 5236 5228 5220 5210 5200 5190 5179 5167 5155 5142 5129 5118 5107 5100 5097
5570 5584 5594 5616 5597 5585 5576 5568 5561 5537 5513 5486 5467 5456 5444 5421 5404 5387 5372 5355 5339 5323 5308 5294 5283 5273 5263 5254 5245 5237 5229 5220 5211 5201 5191 5180 5168 5156 5144 5133 5122 5113 5105 5101
5570 5569 5592 5608 5587 5580 5571 5579 5557 5534 5514 5491 5477 5463 5443 5420 5401 5385 5369 5353 5337 5321 5306 5293 5283 5272 5263 5254 5246 5238 5229 5221 5212 5203 5192 5182 5171 5159 5148 5138 5128 5118 5111 5107
5558 5556 5592 5602 5582 5577 5579 5563 5545 5527 5510 5492 5471 5451 5434 5416 5399 5382 5366 5351 5335 5320 5306 5294 5283 5273 5264 5255 5247 5239 5231 5222 5214 5205 5196 5187 5175 5166 5157 5147 5137 5128 5120 5115
5599 5621 5626 5604 5596 5588 5571 5555 5538 5521 5503 5485 5464 5447 5431 5412 5395 5379 5364 5348 5333 5319 5306 5295 5284 5275 5265 5258 5250 5242 5233 5225 5217 5209 5200 5191 5182 5174 5166 5157 5148 5140 5130 5124
5609 5624 5619 5603 5594 5582 5568 5554 5536 5519 5500 5483 5464 5446 5428 5411 5393 5377 5362 5347 5332 5319 5306 5295 5285 5276 5267 5260 5253 5244 5236 5228 5221 5213 5206 5197 5189 5181 5174 5166 5158 5150 5141 5133
5615 5621 5616 5606 5591 5579 5564 5547 5530 5514 5498 5481 5463 5444 5426 5409 5393 5377 5363 5346 5333 5319 5307 5297 5287 5278 5270 5263 5255 5247 5239 5232 5225 5219 5210 5202 5195 5187 5181 5173 5167 5159 5151 5144
5636 5637 5621 5615 5596 5578 5560 5544 5528 5510 5491 5476 5462 5444 5426 5408 5391 5375 5360 5345 5333 5321 5311 5299 5289 5279 5272 5265 5258 5251 5244 5237 5230 5224 5216 5208 5199 5193 5186 5180 5174 5167 5161 5155
5646 5635 5620 5610 5591 5576 5561 5544 5525 5510 5493 5473 5457 5442 5425 5405 5388 5373 5359 5346 5335 5324 5312 5301 5290 5282 5274 5268 5261 5254 5247 5240 5234 5228 5220 5213 5206 5199 5192 5188 5182 5176 5170 5164
5632 5620 5608 5595 5583 5570 5555 5538 5520 5502 5486 5471 5454 5438 5421 5404 5388 5374 5361 5349 5337 5325 5314 5303 5293 5284 5277 5270 5263 5256 5250 5244 5238 5231 5224 5217 5210 5204 5198 5193 5189 5184 5178 5172
5626 5621 5611 5594 5578 5562 5547 5530 5511 5493 5477 5462 5449 5434 5419 5404 5390 5376 5362 5350 5338 5326 5315 5304 5295 5286 5279 5272 5266 5259 5253 5247 5242 5235 5228 5222 5216 5210 5205 5199 5194 5189 5186 5182
5621 5609 5597 5586 5574 5557 5541 5527 5512 5494 5477 5461 5446 5432 5418 5405 5391 5377 5363 5351 5339 5328 5317 5306 5297 5288 5280 5273 5267 5261 5255 5250 5246 5239 5232 5227 5221 5216 5210 5205 5200 5196 5192 5189
5612 5602 5591 5581 5570 5557 5546 5534 5519 5499 5479 5462 5447 5431 5415 5402 5389 5377 5365 5352 5340 5329 5319 5308 5299 5290 5282 5275 5269 5262 5256 5250 5247 5240 5235 5230 5225 5219 5214 5209 5205 5201 5197 5194
5635 5623 5610 5597 5581 5562 5546 5530 5515 5497 5481 5465 5445 5429 5416 5404 5393 5379 5365 5352 5340 5330 5320 5311 5301 5293 5285 5277 5271 5264 5257 5251 5247 5242 5237 5233 5229 5222 5217 5213 5209 5205 5202 5199
5629 5618 5606 5594 5581 5566 5549 5530 5513 5496 5479 5462 5445 5432 5419 5407 5394 5380 5365 5352 5341 5332 5322 5313 5304 5296 5287 5279 5273 5265 5258 5252 5247 5243 5238 5235 5229 5225 5220 5216 5212 5208 5205 5203
5621 5611 5600 5588 5575 5561 5545 5528 5510 5493 5477 5461 5446 5430 5416 5405 5392 5379 5366 5354 5346 5336 5326 5315 5306 5297 5289 5281 5274 5266 5259 5253 5248 5243 5239 5235 5230 5226 5221 5217 5213 5210 5207 5204
5615 5604 5593 5582 5569 5556 5543 5526 5510 5493 5476 5461 5448 5434 5421 5407 5392 5379 5366 5357 5349 5338 5327 5318 5308 5299 5290 5282 5275 5266 5260 5253 5248 5242 5238 5233 5229 5225 5221 5217 5214 5210 5207 5204
5609 5600 5589 5577 5565 5551 5537 5522 5508 5492 5475 5460 5447 5433 5419 5405 5392 5380 5370 5361 5352 5341 5330 5319 5309 5301 5293 5284 5275 5267 5260 5254 5248 5242 5237 5232 5227 5223 5220 5216 5213 5210 5206 5204
5606 5597 5585 5573 5561 5547 5529 5516 5504 5490 5476 5463 5449 5436 5424 5413 5399 5385 5375 5365 5352 5343 5332 5321 5311 5303 5295 5284 5276 5268 5261 5254 5248 5242 5236 5231 5226 5221 5218 5215 5211 5208 5206 5204
5599 5589 5578 5565 5551 5536 5523 5511 5499 5487 5474 5463 5451 5439 5427 5413 5399 5389 5380 5370 5357 5345 5333 5323 5314 5305 5296 5285 5276 5268 5261 5255 5248 5242 5236 5230 5225 5221 5217 5214 5211 5208 5206 5205
5591 5580 5568 5557 5546 5538 5524 5507 5491 5478 5466 5456 5445 5435 5425 5416 5405 5393 5379 5368 5358 5347 5334 5324 5315 5306 5296 5286 5277 5269 5262 5256 5249 5243 5237 5231 5225 5221 5217 5213 5210 5208 5207 5206
5582 5574 5566 5558 5549 5536 5520 5504 5491 5479 5467 5455 5443 5433 5423 5412 5402 5390 5379 5368 5357 5347 5335 5325 5315 5307 5296 5287 5278 5271 5264 5257 5250 5244 5238 5232 5226 5221 5217 5213 5211 5208 5207 5207
5568 5561 5552 5542 5534 5527 5515 5504 5494 5482 5471 5461 5449 5436 5424 5412 5401 5390 5378 5368 5357 5347 5336 5326 5316 5307 5297 5288 5280 5272 5265 5258 5252 5246 5239 5233 5228 5222 5218 5214 5211 5210 5209 5208